Location: Buckland
(65.9785°N, 161.1281°W)
Time: 23:48:10
(UTC+00:00)

Transit 4A - Pass Details

Date: 05 December 2020
Orbit: 864 x 980 km, 66.8° (Epoch: 20 January)

Event Time Altitude Azimuth Distance (km) Brightness Sun altitude
Rises 15:41:22 0° 147° (SSE) 3,664 11.4 -25.9°
Reaches altitude 10° 15:46:04 10° 116° (ESE) 2,735 11.2 -25.4°
Maximum altitude 15:47:54 11° 99° (E) 2,643 11.3 -25.3°
Drops below altitude 10° 15:49:44 10° 82° (E) 2,743 11.4 -25.1°
Sets 15:54:27 0° 51° (NE) 3,693 11.8 -24.6°
